Theta_e
310 310 310 310 310 309 309 309 310 309 309 307 303 302 302 302 302 302 301 302 302 307 310 311 310 310 310 310 310 311 319 316 319 336 331 332 336 333 334 334 337 345 346 342 340 341 347
307 308 308 309 310 309 309 309 309 309 309 308 306 305 304 304 303 302 302 302 304 309 310 310 310 310 313 310 308 318 322 318 327 336 327 324 328 327 325 326 331 332 334 335 335 336 339
306 307 308 310 310 311 311 310 310 309 309 309 308 307 306 305 305 303 302 304 308 309 309 310 310 311 315 311 309 317 314 320 324 328 324 321 319 325 322 323 325 328 332 333 332 332 335
306 306 307 308 308 308 309 310 310 309 308 307 307 307 307 306 306 304 304 308 309 310 313 311 310 317 312 309 311 312 311 315 316 324 320 322 320 320 322 323 326 330 330 335 339 336 351
306 305 305 306 308 308 307 308 308 309 308 307 306 307 307 307 306 304 307 309 314 314 313 312 316 314 313 315 317 316 315 319 320 324 322 319 321 322 321 322 326 331 336 335 344 347 354
306 305 304 304 304 304 305 307 308 308 308 308 308 307 308 307 306 305 308 309 312 313 314 316 321 321 316 315 312 312 311 316 319 324 324 322 322 322 321 321 321 332 335 332 342 350 353
306 304 304 303 304 304 308 308 308 308 309 309 308 307 307 307 305 306 309 307 310 310 308 309 311 316 311 310 310 311 310 317 321 324 326 325 324 322 320 322 324 330 332 335 331 342 354
305 304 303 304 304 307 309 310 309 309 309 308 308 307 307 307 305 306 309 309 307 307 310 307 307 306 307 307 310 310 310 316 319 322 323 326 329 325 322 324 327 330 330 331 332 347 352
305 304 304 304 304 307 309 309 309 309 308 308 308 307 307 306 305 305 308 307 308 307 308 308 307 308 309 308 309 310 310 314 320 320 323 327 326 326 327 327 328 328 331 330 335 349 348
306 305 304 304 304 307 309 308 308 308 308 308 308 307 306 306 304 305 308 307 309 306 310 312 313 311 309 309 311 310 310 312 315 321 320 321 321 325 325 328 330 329 325 327 328 335 352
307 305 304 304 304 307 309 308 309 308 308 308 307 306 305 305 306 307 307 309 305 303 310 313 313 310 309 311 311 312 310 311 315 318 320 321 320 323 326 328 324 328 326 328 326 329 340
307 306 304 304 304 307 310 308 309 308 308 309 308 305 305 307 307 307 308 307 304 311 310 313 311 310 311 310 311 310 311 311 311 318 319 320 319 321 325 322 325 325 325 329 333 330 333
311 306 304 304 304 307 309 308 308 309 309 310 309 306 309 307 309 308 308 305 311 311 311 311 310 309 308 309 310 310 312 312 313 313 316 318 320 320 320 325 322 325 325 329 332 334 336
315 307 304 304 304 307 308 308 308 308 309 308 307 309 309 307 309 310 304 311 312 310 309 309 308 308 309 308 310 311 311 312 312 312 313 316 319 320 320 322 325 323 328 329 338 339 336
316 307 304 304 304 306 308 308 308 309 309 308 307 309 309 307 310 305 308 311 311 309 307 308 308 310 310 308 308 311 310 311 311 311 315 317 317 319 320 321 322 322 323 325 325 324 332
317 308 304 304 304 306 308 307 308 309 309 307 306 307 309 308 309 304 309 307 308 306 306 307 309 308 310 308 310 310 310 309 310 309 311 318 320 318 320 320 319 321 322 323 323 329 333
317 308 304 304 304 307 307 307 307 308 308 306 306 311 309 308 305 308 309 307 307 306 306 307 307 308 307 308 308 309 309 308 308 309 312 317 316 320 319 322 323 321 322 321 323 325 332
316 308 304 304 304 307 307 307 307 307 307 306 306 313 309 305 312 304 308 306 304 306 306 306 306 307 307 307 308 308 309 309 307 309 312 317 317 319 320 319 317 320 323 323 323 327 325
317 308 304 304 304 307 307 307 307 307 306 305 310 310 308 305 313 310 308 308 308 308 306 307 307 307 306 307 308 308 307 307 308 308 316 317 316 319 317 320 319 321 322 321 322 324 327
317 306 304 304 305 307 307 307 307 307 306 305 308 313 310 307 304 309 310 310 310 309 309 306 306 307 307 307 308 308 307 308 308 311 315 315 317 319 318 319 317 322 321 323 322 325 325
317 305 304 304 305 307 307 307 307 307 306 306 307 308 305 310 309 308 309 311 311 311 309 308 307 307 307 308 308 308 309 309 308 310 310 313 315 314 315 315 315 315 321 321 325 325 326
317 306 304 304 306 307 307 307 307 307 306 307 310 309 304 306 305 309 310 312 311 310 310 310 309 308 308 308 308 308 309 309 309 309 309 309 315 318 316 316 319 320 323 323 323 325 325
317 305 304 304 307 307 307 307 306 307 306 307 304 303 307 304 307 310 311 312 310 309 309 309 309 309 309 309 308 309 309 309 310 310 310 310 316 318 315 318 322 324 325 326 336 341 340
316 305 304 304 307 307 307 307 306 307 306 306 304 304 307 308 308 309 309 309 310 310 310 309 309 308 308 309 309 309 309 310 310 311 310 310 312 316 317 321 323 328 327 335 340 336 336
312 304 304 304 307 307 307 307 306 307 307 306 305 307 308 307 307 307 308 308 309 308 309 308 308 308 309 310 313 311 309 311 311 311 311 310 310 314 319 317 325 331 325 327 333 339 332
310 304 304 305 307 306 307 307 306 307 306 306 305 305 306 308 307 307 308 307 310 310 309 308 307 309 310 313 313 313 312 310 310 312 309 310 311 312 318 318 322 329 323 323 324 342 328
305 304 304 305 307 306 307 307 306 307 306 306 305 304 305 307 305 306 308 308 307 308 308 306 308 310 310 310 314 311 313 310 312 311 311 311 311 312 314 320 324 324 323 324 336 336 326
304 304 304 305 307 306 307 306 306 307 306 306 305 305 305 306 305 304 305 307 307 307 309 306 309 311 311 311 310 313 315 312 313 312 311 311 311 311 313 318 326 321 326 333 327 325 325
304 304 304 305 307 306 306 306 306 307 306 306 305 305 305 306 306 303 304 304 306 306 307 307 311 309 310 308 307 311 313 315 315 316 311 312 311 312 315 324 321 319 321 321 321 324 325
Wind_Speed
21 21 21 22 23 24 24 25 25 25 25 26 27 28 28 30 30 29 29 27 30 22 21 22 17 12 2 2 8 8 6 5 21 17 18 11 15 7 7 6 8 12 10 10 12 9 3
22 23 22 22 22 23 23 23 24 24 25 27 28 29 30 31 31 31 28 31 26 21 20 18 15 2 3 6 3 2 10 13 13 18 12 10 10 7 5 4 7 2 8 14 10 11 8
23 23 24 24 24 24 24 24 25 25 25 26 28 29 30 31 31 31 31 27 22 23 16 15 9 6 3 13 3 7 5 5 7 17 11 11 4 12 5 4 5 7 8 8 9 7 8
23 24 25 25 25 26 25 25 25 26 27 28 30 30 30 32 34 31 30 23 23 11 6 4 9 4 7 4 7 10 13 9 9 14 1 12 5 2 3 5 3 3 4 7 4 5 7
24 25 26 27 26 26 27 26 26 27 28 30 31 30 31 32 32 34 22 21 7 6 9 10 4 3 6 6 5 4 3 4 9 8 11 4 9 7 4 5 5 2 5 8 6 7 8
25 26 28 29 29 29 29 28 29 29 29 30 32 32 31 33 32 25 19 5 2 3 3 1 1 3 4 0 6 11 8 7 4 11 8 4 3 7 9 10 11 6 8 2 5 8 14
25 27 29 30 30 31 29 29 29 29 29 31 32 32 32 32 34 15 17 1 3 2 4 5 1 5 7 9 7 3 1 7 7 8 9 6 6 13 18 15 9 5 5 7 2 3 9
25 27 28 31 33 31 29 28 29 29 30 31 32 32 34 32 26 10 8 5 5 2 8 5 8 6 12 6 5 2 3 7 7 9 9 6 15 13 10 14 14 9 5 5 1 0 9
26 28 29 32 34 32 30 28 28 29 33 35 34 32 33 32 12 8 6 10 7 2 4 6 3 3 3 4 3 3 1 5 8 9 12 12 1 11 11 12 13 10 9 5 2 4 3
26 27 29 32 34 31 30 30 31 31 32 34 34 34 33 32 3 10 2 4 15 7 3 7 3 3 1 2 1 3 2 2 3 13 9 8 6 10 10 13 13 15 7 6 3 3 4
26 27 29 32 33 31 29 30 31 32 34 36 36 34 31 15 8 2 3 16 2 4 2 9 4 1 4 3 7 4 5 2 5 7 6 7 10 13 12 14 10 7 9 6 2 3 2
25 26 29 32 34 31 28 30 31 33 36 36 37 35 20 3 2 3 12 12 4 3 1 4 6 8 4 9 6 9 5 6 2 3 2 9 3 7 15 6 12 12 8 4 3 3 8
25 25 28 31 33 30 29 28 31 32 35 36 33 21 7 2 3 12 16 1 2 1 4 6 5 7 3 9 8 8 8 12 5 8 11 3 7 4 3 15 9 13 9 6 7 7 9
24 24 26 30 32 29 29 27 30 33 34 38 30 8 8 14 12 10 3 2 1 2 4 3 5 2 5 10 7 8 4 5 13 6 3 12 9 9 8 7 12 15 18 6 12 13 12
23 23 26 29 30 28 27 26 29 32 33 33 20 4 5 19 7 9 1 2 2 2 2 5 1 4 5 5 4 3 8 8 8 11 2 5 11 2 6 6 12 7 9 11 2 1 6
21 22 24 28 29 26 25 25 28 31 32 28 11 3 6 17 5 3 3 3 1 2 3 0 3 3 5 9 3 4 4 8 7 11 3 6 4 5 0 7 2 7 13 10 5 8 11
18 20 24 27 27 23 23 25 27 30 31 21 4 1 10 8 3 4 3 2 1 3 1 4 2 2 3 4 6 4 4 4 9 11 4 9 2 5 4 10 15 6 7 5 8 5 13
17 19 22 25 25 21 21 22 24 27 30 15 3 1 14 3 2 2 2 2 5 4 4 4 4 3 2 3 3 3 2 4 10 8 6 7 3 4 5 4 4 4 15 14 10 11 4
15 19 21 24 23 20 20 19 21 22 23 8 2 2 9 5 2 2 1 2 5 5 5 2 2 1 1 2 0 3 4 1 11 8 7 7 2 3 7 5 4 3 2 5 4 2 17
15 18 21 23 20 19 17 18 19 18 18 5 1 1 4 5 2 2 2 3 2 6 4 3 3 2 2 2 5 2 4 4 9 6 7 4 2 3 4 5 5 2 2 4 10 13 10
14 17 20 21 18 16 14 16 16 16 15 3 3 3 2 3 4 4 1 1 2 3 6 8 3 4 2 3 1 1 4 7 5 8 5 3 4 3 9 12 8 8 9 5 8 8 15
13 16 18 19 14 13 12 13 14 15 11 5 2 1 2 2 1 2 3 4 4 3 4 3 3 3 2 1 3 1 2 2 2 4 5 5 1 3 6 10 6 10 9 9 8 5 9
12 15 18 17 11 9 10 10 12 12 8 4 2 2 0 3 2 1 2 2 4 1 4 4 4 1 3 4 4 5 5 4 4 4 4 4 5 3 5 4 6 8 10 8 6 4 3
11 14 16 15 8 6 7 7 8 8 9 5 2 2 1 3 1 2 2 1 3 4 1 1 3 2 2 2 2 2 6 9 8 11 7 3 3 3 4 2 8 4 5 1 10 7 6
10 12 14 12 5 4 4 4 5 5 6 6 3 1 1 3 3 3 2 3 3 4 2 2 2 2 4 1 3 3 3 4 7 12 12 11 4 4 4 9 2 5 3 3 1 4 10
9 11 12 9 3 1 1 2 2 2 4 6 6 5 3 3 3 3 2 1 1 1 2 1 2 2 1 1 0 2 3 2 4 7 3 10 10 4 3 7 10 5 6 5 2 5 11
8 10 11 7 2 2 2 2 0 2 4 3 4 5 3 2 3 4 2 2 2 1 2 2 4 1 2 1 3 5 5 3 6 7 6 7 7 14 9 5 2 7 9 3 7 3 12
8 10 11 5 3 4 3 2 2 4 5 2 4 3 2 1 2 5 4 5 4 3 1 2 2 1 1 3 3 3 3 5 6 4 7 11 11 7 7 6 7 11 3 5 4 5 8
7 9 10 4 3 5 6 5 3 5 6 2 3 2 2 1 2 4 9 14 9 2 2 3 4 7 4 3 2 2 3 3 5 4 9 7 3 5 5 2 4 5 8 3 3 4 7
Wind_Direction
13 10 7 5 3 1 359 356 354 353 351 349 348 348 347 343 344 341 337 332 325 324 319 316 311 311 342 284 257 318 336 129 163 167 173 162 168 172 192 207 215 238 264 272 262 271 246
11 8 4 2 359 357 354 352 350 349 347 347 346 346 345 343 342 340 336 330 325 322 316 306 299 214 156 259 234 127 63 145 172 177 177 179 192 177 198 232 209 312 249 267 272 252 230
9 5 2 358 354 351 349 347 347 346 345 343 343 343 344 343 342 338 334 328 325 319 311 295 280 165 194 246 199 232 298 158 172 184 181 193 217 192 178 251 283 285 282 287 255 250 204
5 2 360 357 354 351 348 345 344 343 342 344 343 343 343 344 342 339 333 331 326 330 332 318 151 149 251 276 299 279 265 259 224 197 196 193 192 109 256 311 267 245 222 251 162 178 182
3 1 358 356 352 349 347 345 343 342 343 345 344 344 344 343 343 338 336 333 21 59 68 95 122 197 260 312 314 328 292 226 156 156 201 86 164 213 219 243 247 229 236 212 172 179 164
0 358 356 355 353 351 349 346 343 343 343 343 344 346 345 342 344 341 343 2 19 41 23 357 254 253 258 114 313 297 281 191 159 133 120 180 135 178 193 202 212 204 212 180 196 179 180
359 357 355 353 352 349 346 344 344 344 342 345 346 346 346 343 344 355 354 304 327 51 30 267 267 297 283 316 297 259 220 161 136 159 174 184 195 204 196 199 218 190 209 195 134 193 188
356 355 355 354 351 349 345 344 345 344 344 347 347 348 346 342 344 2 21 71 78 335 307 260 254 254 274 282 280 240 189 184 192 173 145 157 225 209 204 193 210 222 208 187 151 2 207
354 354 353 353 352 350 348 346 345 347 347 344 344 347 344 342 347 12 70 113 359 341 262 296 232 266 329 156 262 269 231 170 183 177 184 202 280 189 186 191 194 213 218 187 168 106 127
351 351 351 351 353 350 349 350 349 347 346 343 343 344 342 339 57 351 91 348 332 167 289 6 28 77 10 284 273 261 268 267 146 203 172 224 204 170 195 205 206 210 190 200 206 204 197
347 347 350 350 350 349 349 348 348 346 347 344 343 342 339 336 299 284 328 330 12 157 173 5 29 11 356 1 318 70 325 273 192 163 196 187 174 185 204 206 193 211 172 177 217 194 232
343 346 349 349 349 348 347 348 346 347 347 345 343 339 330 329 275 323 326 331 152 239 139 20 8 0 6 17 25 330 20 34 38 164 235 219 164 205 206 187 190 147 146 121 109 188 238
341 345 347 347 350 346 345 346 346 347 346 345 345 345 8 107 355 323 331 235 190 253 339 11 347 354 16 6 11 19 60 53 34 192 212 178 201 188 168 191 192 195 188 172 194 198 223
337 341 346 346 349 347 343 346 346 346 347 346 348 19 63 15 340 342 336 192 180 71 36 356 352 352 48 358 28 22 81 52 33 9 217 211 217 203 174 209 191 197 210 214 207 214 219
334 338 343 346 349 347 341 347 346 347 347 345 350 15 41 350 350 348 300 101 69 60 339 336 102 34 29 23 2 70 57 28 19 10 318 226 219 292 210 176 182 180 203 222 249 90 242
331 336 341 345 349 348 343 346 347 347 349 347 342 10 9 346 358 10 66 87 88 341 338 351 78 8 31 3 19 52 50 10 351 6 327 1 246 218 241 193 142 208 177 189 212 202 226
329 336 340 344 347 348 344 346 351 349 351 351 2 148 355 345 12 52 75 65 12 21 158 21 106 94 63 14 13 35 27 62 8 347 354 355 271 155 187 205 198 173 186 217 223 237 228
327 335 339 343 345 347 346 349 351 351 355 359 357 108 354 17 35 39 85 358 342 6 43 77 83 81 60 25 46 68 77 51 8 346 355 2 318 270 191 120 300 248 211 206 212 196 242
324 333 337 342 343 347 346 351 351 354 1 348 37 316 352 355 85 78 44 89 48 28 36 77 102 69 52 48 11 65 30 61 4 9 1 344 33 264 212 173 136 196 182 220 222 255 215
323 331 337 341 340 346 346 351 350 355 358 22 29 74 31 49 23 67 50 23 80 34 68 28 107 100 108 50 44 68 33 18 346 5 356 290 263 292 281 353 360 288 271 188 227 228 221
320 329 335 339 339 344 348 350 351 354 354 40 9 70 22 31 47 71 94 46 43 41 27 24 65 33 121 136 75 65 27 342 12 4 11 3 278 271 281 281 270 267 273 252 222 238 229
314 326 331 336 341 343 345 350 350 357 1 64 59 126 88 63 338 120 20 62 52 24 16 49 72 10 47 43 57 210 317 346 328 344 12 356 284 308 287 291 267 263 263 259 250 260 263
306 322 330 336 344 341 347 357 356 4 16 75 72 86 256 13 63 128 63 87 57 23 63 62 47 136 132 83 330 300 254 254 272 294 335 336 322 285 257 343 306 255 248 231 130 78 296
296 319 330 334 339 340 348 6 354 14 45 88 101 119 109 102 86 105 134 76 45 38 2 18 41 24 67 292 250 230 247 250 228 233 227 270 314 285 270 297 231 73 53 190 124 73 14
293 316 330 333 337 335 347 6 348 21 62 98 97 75 112 116 131 156 72 30 325 345 12 329 54 8 301 266 253 274 209 218 220 229 211 219 222 279 249 213 16 227 32 62 305 96 24
289 314 330 330 327 315 7 335 334 46 95 102 90 76 75 131 161 75 101 66 54 303 277 228 50 343 308 2 304 255 263 311 230 162 35 204 229 242 284 227 212 88 341 349 274 189 11
293 316 327 325 283 218 206 252 279 140 127 136 117 92 95 113 172 173 190 133 117 87 306 303 344 299 358 79 226 230 243 227 238 225 153 171 194 218 235 268 224 11 325 245 198 70 337
297 318 322 314 231 201 208 200 167 160 145 121 121 113 75 123 200 209 189 178 163 195 224 45 270 125 279 224 224 227 242 221 246 143 170 181 175 189 216 239 217 6 158 222 21 333 343
293 314 320 302 222 207 207 203 181 166 166 127 93 123 129 136 330 236 237 242 244 215 173 207 207 186 230 221 237 248 243 264 251 217 191 209 241 181 235 1 57 61 77 43 342 340 5